Location: Devore Heights
(34.2372°N, 117.4156°W)
Time: 07:53:22
(UTC+00:00)

Vanguard 1 Rocket - Pass Details

Date: 22 September 2024
Orbit: 650 x 4218 km, 34.3° (Epoch: 09 October)

Event Time Altitude Azimuth Distance (km) Brightness Sun altitude
Rises 16:10:57 0° 288° (WNW) 7,084 11.4 29.9°
Reaches altitude 10° 16:15:20 10° 283° (WNW) 6,432 11.3 30.8°
Maximum altitude 16:36:48 49° 217° (SW) 4,893 11.4 34.8°
Drops below altitude 10° 16:59:56 10° 150° (SSE) 6,795 12.8 38.9°
Sets 17:04:51 0° 145° (SE) 7,478 12.9 39.7°
